Temp
-7 -7 -7 -7 -7 -7 -8 -8 -8 -8 -8 -8 -9 -8 -8 -8 -8 -8 -9 -9 -9 -9 -8 -8 -8 -8 -8 -8 -8 -8 -8 -8 -8 -8 -8 -8 -8 -8 -8 -8 -8 -8 -8 -8 -8 -8 -8 -7 -7 -7 -7 -7 -7 -7 -7 -7 -7 -7 -7 -7 -7 -6 -6 -6 -6 -6 -6 -6 -6 -6 -6 -6 -6 -6
-6 -7 -7 -7 -7 -7 -7 -8 -8 -8 -8 -8 -8 -8 -8 -8 -8 -8 -9 -9 -9 -8 -8 -8 -8 -8 -8 -8 -8 -8 -8 -8 -8 -8 -8 -8 -8 -8 -8 -8 -8 -8 -8 -8 -8 -8 -7 -7 -7 -7 -7 -7 -7 -7 -7 -7 -7 -7 -7 -7 -7 -6 -6 -6 -6 -6 -6 -6 -6 -6 -6 -6 -6 -6
-6 -7 -7 -7 -7 -7 -7 -7 -7 -8 -8 -8 -8 -8 -8 -8 -8 -8 -9 -9 -9 -8 -8 -8 -8 -8 -8 -8 -8 -8 -8 -8 -8 -8 -8 -8 -8 -8 -8 -8 -8 -8 -8 -7 -7 -7 -7 -7 -7 -7 -7 -7 -7 -7 -7 -7 -7 -7 -7 -7 -7 -7 -6 -6 -6 -6 -6 -6 -6 -6 -6 -6 -6 -6
-6 -6 -7 -7 -7 -7 -7 -7 -7 -7 -7 -7 -8 -8 -8 -8 -8 -8 -8 -8 -8 -8 -8 -8 -8 -8 -8 -8 -8 -8 -8 -8 -8 -8 -8 -8 -8 -8 -8 -8 -8 -8 -7 -7 -7 -7 -7 -7 -7 -7 -7 -7 -7 -7 -7 -7 -7 -7 -7 -7 -7 -6 -6 -6 -6 -5 -6 -6 -6 -6 -6 -6 -6 -6
-6 -6 -6 -7 -7 -7 -7 -7 -7 -7 -7 -7 -7 -8 -8 -8 -8 -8 -8 -8 -8 -8 -8 -8 -8 -8 -8 -8 -8 -8 -8 -8 -8 -8 -8 -8 -8 -8 -8 -8 -7 -7 -7 -7 -7 -7 -7 -7 -7 -7 -7 -7 -7 -7 -7 -7 -7 -7 -7 -7 -7 -6 -6 -6 -6 -5 -5 -5 -6 -6 -6 -6 -6 -6
-6 -6 -6 -6 -7 -7 -7 -7 -7 -7 -7 -7 -7 -7 -7 -7 -7 -7 -7 -8 -8 -8 -8 -8 -8 -8 -8 -8 -8 -8 -8 -8 -8 -7 -7 -7 -8 -8 -8 -7 -7 -7 -7 -7 -7 -7 -7 -7 -7 -7 -7 -7 -7 -7 -7 -7 -7 -7 -7 -7 -6 -6 -6 -6 -6 -6 -5 -5 -5 -5 -6 -6 -6 -6
-6 -6 -6 -6 -7 -7 -7 -7 -7 -7 -7 -7 -7 -7 -7 -7 -7 -7 -7 -8 -8 -7 -8 -8 -8 -8 -8 -8 -8 -8 -8 -7 -7 -7 -7 -7 -7 -7 -7 -7 -7 -7 -7 -7 -7 -7 -7 -7 -7 -7 -7 -7 -7 -7 -7 -7 -7 -7 -7 -7 -6 -6 -6 -6 -6 -6 -6 -5 -5 -5 -5 -5 -5 -6
-6 -6 -6 -6 -6 -6 -6 -7 -7 -7 -7 -7 -7 -7 -7 -7 -7 -7 -7 -7 -7 -7 -7 -7 -7 -7 -7 -7 -7 -7 -7 -7 -7 -7 -7 -7 -7 -7 -7 -7 -7 -7 -7 -7 -7 -7 -7 -7 -7 -7 -7 -7 -7 -7 -7 -7 -7 -7 -7 -7 -7 -6 -6 -6 -6 -6 -6 -5 -5 -5 -5 -5 -5 -5
-6 -6 -6 -6 -6 -6 -6 -6 -7 -7 -7 -7 -7 -7 -7 -7 -7 -7 -7 -7 -7 -7 -7 -7 -7 -7 -7 -7 -7 -7 -7 -7 -7 -7 -7 -7 -7 -7 -7 -7 -7 -7 -7 -7 -7 -7 -7 -7 -7 -7 -7 -7 -7 -7 -7 -7 -7 -7 -7 -7 -7 -6 -6 -6 -6 -6 -6 -6 -5 -5 -5 -5 -5 -5
-6 -6 -6 -6 -6 -6 -6 -6 -6 -6 -7 -7 -7 -7 -7 -7 -7 -7 -7 -7 -7 -7 -7 -7 -7 -7 -7 -7 -7 -7 -7 -7 -7 -7 -7 -7 -7 -7 -7 -7 -7 -7 -7 -7 -7 -7 -7 -7 -7 -7 -7 -7 -7 -7 -7 -7 -7 -7 -7 -6 -6 -6 -6 -6 -6 -6 -6 -6 -6 -5 -5 -5 -5 -5
-6 -6 -6 -6 -6 -6 -6 -6 -6 -6 -6 -6 -6 -7 -7 -7 -7 -7 -7 -7 -7 -7 -7 -7 -7 -6 -7 -7 -7 -7 -7 -7 -7 -7 -7 -7 -7 -7 -7 -7 -7 -7 -7 -7 -7 -7 -7 -7 -7 -7 -7 -7 -7 -7 -7 -7 -7 -7 -7 -6 -6 -6 -6 -6 -6 -6 -6 -6 -6 -6 -6 -5 -5 -5
-6 -5 -5 -5 -5 -5 -5 -5 -5 -6 -6 -6 -6 -6 -6 -6 -6 -6 -6 -6 -6 -6 -7 -7 -6 -6 -7 -7 -7 -7 -7 -7 -7 -7 -7 -7 -7 -7 -7 -7 -7 -7 -7 -7 -7 -7 -7 -7 -7 -7 -7 -7 -7 -7 -7 -6 -6 -6 -6 -6 -6 -6 -6 -6 -6 -6 -6 -6 -6 -6 -6 -6 -6 -5
-6 -5 -5 -5 -5 -5 -5 -5 -5 -5 -5 -6 -6 -5 -6 -6 -6 -6 -6 -6 -6 -6 -6 -6 -6 -6 -7 -7 -6 -7 -7 -7 -7 -7 -7 -7 -7 -7 -7 -7 -7 -7 -7 -7 -7 -7 -7 -7 -7 -7 -7 -7 -7 -6 -6 -6 -6 -6 -6 -6 -6 -6 -6 -6 -6 -6 -6 -6 -6 -6 -6 -6 -6 -6
-6 -5 -5 -5 -5 -5 -5 -5 -5 -5 -6 -6 -5 -5 -5 -6 -6 -6 -6 -6 -6 -6 -6 -6 -6 -6 -7 -7 -6 -7 -7 -7 -7 -7 -7 -7 -7 -7 -7 -7 -7 -7 -7 -7 -7 -7 -7 -7 -7 -7 -7 -7 -7 -6 -6 -6 -6 -6 -6 -6 -6 -6 -6 -6 -6 -6 -6 -6 -6 -6 -6 -6 -6 -6
-6 -6 -6 -6 -5 -5 -5 -5 -5 -5 -5 -6 -6 -5 -5 -6 -6 -6 -6 -6 -6 -6 -6 -6 -6 -6 -7 -7 -7 -7 -7 -7 -7 -7 -7 -7 -7 -7 -7 -7 -7 -7 -7 -7 -7 -7 -7 -7 -7 -7 -7 -7 -7 -6 -6 -6 -6 -6 -6 -6 -6 -6 -6 -6 -6 -6 -6 -6 -6 -6 -6 -6 -6 -6
-6 -6 -6 -6 -6 -6 -6 -6 -6 -6 -6 -6 -6 -6 -6 -6 -6 -6 -6 -6 -6 -6 -6 -7 -7 -7 -7 -7 -7 -7 -7 -7 -7 -7 -7 -7 -7 -7 -7 -7 -7 -7 -7 -7 -7 -7 -7 -7 -7 -7 -7 -7 -6 -6 -6 -6 -6 -6 -6 -6 -6 -6 -6 -6 -6 -6 -6 -6 -6 -6 -6 -6 -6 -6
-6 -6 -6 -6 -6 -6 -6 -6 -6 -6 -6 -6 -6 -6 -6 -6 -6 -6 -6 -6 -6 -6 -6 -6 -7 -7 -7 -7 -7 -7 -7 -7 -7 -7 -7 -7 -7 -7 -7 -7 -7 -7 -6 -6 -6 -7 -7 -7 -7 -7 -6 -6 -6 -6 -6 -6 -6 -6 -6 -6 -6 -6 -6 -6 -6 -6 -6 -6 -6 -6 -6 -6 -6 -6
-6 -6 -6 -6 -6 -5 -5 -6 -6 -6 -6 -6 -6 -6 -6 -6 -6 -6 -6 -6 -6 -6 -6 -6 -7 -7 -7 -7 -7 -7 -7 -7 -7 -7 -7 -7 -7 -7 -7 -7 -7 -7 -6 -6 -6 -6 -6 -6 -6 -6 -6 -6 -6 -6 -6 -6 -6 -6 -6 -6 -5 -6 -6 -5 -5 -5 -5 -5 -6 -6 -6 -6 -6 -6
-6 -6 -6 -6 -6 -5 -5 -5 -5 -5 -5 -5 -5 -6 -6 -6 -6 -6 -6 -6 -6 -6 -6 -6 -6 -6 -6 -6 -7 -7 -7 -7 -7 -7 -7 -7 -7 -7 -7 -7 -7 -6 -6 -6 -6 -6 -6 -6 -6 -6 -6 -6 -6 -6 -6 -6 -6 -5 -5 -5 -5 -5 -5 -5 -5 -5 -5 -5 -5 -5 -5 -6 -6 -6
-5 -5 -5 -6 -6 -6 -6 -5 -5 -5 -5 -5 -5 -5 -5 -6 -6 -6 -6 -6 -6 -6 -6 -6 -6 -6 -6 -6 -6 -7 -7 -7 -7 -6 -6 -7 -6 -6 -6 -6 -6 -6 -6 -6 -6 -6 -6 -6 -6 -6 -6 -6 -6 -6 -6 -6 -5 -5 -5 -5 -5 -5 -5 -5 -5 -5 -5 -5 -5 -5 -5 -5 -6 -6
-6 -6 -5 -5 -6 -6 -6 -6 -5 -5 -5 -5 -5 -5 -5 -5 -6 -6 -6 -6 -6 -6 -6 -6 -6 -6 -6 -6 -6 -6 -7 -6 -6 -6 -6 -6 -6 -6 -6 -6 -6 -6 -6 -6 -6 -6 -6 -6 -6 -6 -6 -6 -6 -6 -5 -5 -5 -5 -5 -5 -5 -5 -5 -5 -5 -5 -5 -5 -5 -5 -5 -5 -5 -6
-6 -6 -6 -6 -6 -6 -6 -6 -6 -5 -5 -5 -5 -5 -5 -5 -6 -6 -6 -6 -5 -5 -5 -6 -6 -6 -6 -6 -6 -6 -6 -6 -6 -6 -6 -6 -5 -5 -5 -5 -6 -6 -6 -6 -6 -6 -6 -6 -6 -6 -6 -6 -6 -6 -6 -6 -5 -5 -5 -5 -5 -5 -5 -5 -5 -5 -5 -5 -5 -5 -5 -5 -5 -5
-6 -6 -6 -6 -6 -6 -6 -6 -6 -5 -5 -5 -5 -5 -5 -5 -6 -6 -6 -5 -5 -5 -5 -5 -6 -6 -6 -6 -6 -6 -6 -6 -6 -6 -5 -5 -5 -5 -5 -5 -5 -5 -6 -6 -6 -6 -6 -6 -6 -6 -6 -6 -6 -6 -6 -6 -6 -5 -5 -5 -5 -5 -5 -5 -5 -5 -5 -5 -5 -5 -5 -5 -5 -5
-6 -6 -6 -6 -6 -6 -6 -6 -6 -6 -5 -5 -5 -5 -5 -6 -6 -6 -6 -5 -5 -5 -5 -5 -5 -5 -6 -6 -6 -6 -6 -6 -6 -6 -5 -5 -5 -5 -5 -5 -5 -5 -6 -6 -6 -6 -6 -6 -6 -6 -5 -6 -6 -6 -6 -6 -6 -6 -6 -6 -6 -6 -6 -6 -5 -5 -5 -5 -5 -5 -5 -5 -5 -5
-6 -6 -6 -6 -6 -6 -6 -6 -6 -6 -6 -5 -5 -5 -5 -5 -6 -6 -6 -5 -5 -5 -5 -5 -5 -5 -5 -5 -5 -5 -6 -6 -6 -5 -5 -5 -5 -5 -5 -5 -5 -5 -5 -6 -5 -5 -6 -6 -6 -6 -5 -5 -6 -6 -6 -6 -6 -6 -6 -6 -6 -6 -6 -6 -6 -6 -5 -6 -6 -6 -5 -5 -5 -5
-7 -7 -6 -6 -6 -6 -6 -6 -6 -6 -6 -6 -5 -5 -5 -5 -5 -5 -6 -6 -6 -5 -5 -5 -5 -6 -6 -5 -5 -6 -6 -6 -5 -5 -5 -5 -5 -5 -5 -5 -4 -5 -5 -5 -5 -5 -5 -6 -6 -6 -6 -6 -6 -6 -6 -6 -6 -6 -6 -6 -6 -6 -6 -6 -6 -6 -5 -5 -6 -6 -6 -6 -5 -5
-7 -7 -7 -7 -6 -6 -6 -6 -6 -6 -6 -6 -6 -6 -5 -5 -5 -5 -5 -5 -6 -5 -5 -5 -5 -6 -6 -6 -6 -6 -6 -6 -6 -6 -6 -5 -5 -5 -5 -5 -5 -5 -5 -5 -5 -5 -5 -5 -6 -6 -6 -6 -6 -6 -6 -6 -6 -6 -6 -6 -6 -6 -6 -6 -6 -5 -5 -5 -5 -6 -6 -6 -6 -6
-7 -7 -7 -7 -7 -7 -7 -7 -6 -6 -6 -6 -6 -6 -6 -6 -6 -5 -5 -5 -5 -5 -5 -5 -5 -6 -6 -6 -6 -6 -5 -5 -6 -6 -6 -6 -5 -5 -5 -5 -5 -5 -5 -5 -5 -5 -5 -5 -5 -5 -5 -5 -5 -6 -6 -6 -6 -6 -6 -6 -6 -6 -6 -6 -5 -5 -5 -5 -5 -5 -6 -6 -6 -6
-7 -7 -7 -7 -7 -7 -7 -7 -7 -7 -6 -6 -6 -6 -6 -6 -6 -6 -6 -6 -6 -6 -6 -6 -5 -5 -6 -5 -5 -5 -5 -5 -5 -6 -6 -5 -5 -5 -5 -5 -5 -5 -5 -5 -5 -5 -5 -5 -5 -5 -5 -5 -5 -5 -5 -5 -6 -6 -6 -6 -6 -6 -6 -6 -5 -5 -5 -5 -5 -5 -6 -6 -6 -6
-7 -7 -7 -7 -7 -7 -7 -7 -7 -7 -7 -7 -6 -6 -6 -6 -6 -6 -6 -6 -6 -6 -6 -6 -6 -6 -6 -6 -5 -5 -5 -5 -5 -6 -6 -5 -5 -5 -5 -5 -5 -5 -5 -5 -6 -5 -5 -5 -5 -5 -5 -4 -4 -4 -4 -5 -5 -6 -6 -6 -6 -6 -6 -6 -5 -5 -5 -5 -5 -6 -6 -6 -6 -6
-7 -7 -7 -7 -7 -7 -7 -7 -7 -7 -7 -7 -7 -7 -6 -6 -6 -6 -6 -6 -6 -6 -6 -6 -6 -6 -6 -6 -6 -6 -5 -5 -6 -6 -6 -5 -5 -5 -5 -5 -5 -5 -6 -6 -6 -6 -5 -5 -5 -4 -4 -4 -4 -4 -4 -4 -5 -6 -6 -6 -5 -5 -6 -6 -6 -6 -6 -6 -6 -6 -6 -6 -6 -6
-7 -7 -7 -7 -7 -7 -7 -7 -7 -7 -7 -7 -7 -7 -7 -6 -6 -7 -7 -6 -6 -6 -6 -6 -6 -6 -6 -6 -6 -6 -6 -6 -6 -6 -6 -5 -5 -5 -5 -5 -5 -6 -6 -6 -6 -6 -6 -5 -5 -5 -4 -4 -4 -4 -4 -5 -5 -6 -6 -6 -6 -5 -6 -6 -6 -6 -6 -6 -6 -6 -6 -6 -6 -6
-7 -7 -7 -7 -7 -7 -7 -7 -7 -7 -7 -7 -7 -7 -7 -7 -7 -7 -7 -7 -7 -6 -6 -6 -6 -6 -6 -6 -6 -6 -6 -6 -6 -6 -5 -5 -5 -5 -5 -5 -5 -6 -6 -6 -6 -6 -6 -5 -5 -5 -4 -4 -5 -5 -5 -5 -6 -6 -6 -6 -6 -6 -6 -6 -6 -6 -6 -6 -6 -6 -6 -6 -6 -6
-7 -7 -7 -7 -7 -7 -7 -7 -7 -7 -7 -7 -7 -7 -7 -7 -7 -7 -7 -7 -7 -6 -6 -6 -6 -6 -6 -6 -6 -6 -6 -6 -6 -6 -6 -5 -5 -5 -5 -5 -6 -6 -6 -6 -6 -6 -6 -5 -5 -5 -5 -5 -5 -5 -5 -6 -6 -6 -6 -7 -7 -7 -7 -7 -6 -6 -6 -6 -6 -6 -6 -6 -6 -6
-8 -8 -8 -7 -7 -7 -7 -7 -7 -7 -7 -7 -7 -8 -8 -7 -7 -7 -7 -7 -7 -7 -7 -6 -6 -6 -6 -6 -6 -6 -6 -6 -6 -6 -6 -6 -6 -6 -6 -6 -6 -6 -6 -6 -6 -6 -6 -5 -5 -5 -5 -5 -5 -6 -6 -7 -6 -6 -7 -7 -7 -7 -7 -7 -7 -6 -6 -6 -6 -6 -6 -7 -7 -7
-8 -8 -8 -8 -7 -7 -7 -7 -7 -7 -7 -8 -8 -8 -8 -8 -7 -7 -7 -7 -7 -7 -7 -7 -6 -6 -6 -6 -6 -6 -6 -6 -6 -6 -6 -6 -6 -6 -6 -6 -6 -6 -5 -6 -6 -6 -6 -6 -6 -5 -5 -6 -6 -6 -7 -7 -6 -6 -6 -6 -6 -7 -7 -7 -6 -6 -6 -6 -6 -6 -6 -7 -7 -7
-8 -8 -8 -8 -8 -7 -7 -7 -7 -7 -7 -7 -8 -8 -8 -8 -8 -7 -7 -7 -7 -7 -7 -7 -7 -6 -6 -6 -6 -6 -6 -6 -6 -6 -6 -6 -6 -6 -6 -6 -6 -5 -5 -5 -6 -6 -6 -6 -6 -6 -6 -6 -6 -6 -7 -7 -7 -6 -6 -6 -6 -7 -7 -6 -6 -6 -6 -6 -6 -6 -6 -6 -7 -7
-8 -8 -8 -8 -8 -8 -7 -7 -7 -7 -7 -7 -7 -8 -8 -8 -8 -8 -7 -7 -7 -7 -7 -6 -6 -7 -7 -6 -6 -6 -6 -6 -6 -6 -6 -6 -6 -6 -6 -6 -6 -6 -5 -5 -6 -6 -6 -6 -6 -6 -6 -6 -6 -6 -7 -7 -7 -7 -7 -7 -7 -7 -6 -6 -6 -6 -6 -6 -6 -6 -6 -6 -6 -7
-8 -8 -8 -8 -8 -8 -8 -7 -7 -7 -7 -7 -7 -7 -7 -7 -7 -7 -7 -7 -7 -7 -7 -7 -7 -7 -7 -7 -7 -6 -6 -6 -6 -6 -6 -6 -6 -6 -6 -6 -6 -6 -6 -6 -6 -6 -6 -6 -6 -7 -7 -6 -6 -6 -6 -6 -6 -7 -7 -7 -7 -7 -6 -6 -5 -5 -6 -6 -6 -6 -6 -6 -6 -7
-8 -8 -8 -8 -8 -8 -8 -8 -8 -8 -8 -7 -7 -7 -7 -7 -7 -7 -7 -7 -7 -7 -7 -7 -7 -7 -7 -7 -7 -6 -6 -6 -7 -7 -7 -7 -7 -6 -6 -6 -6 -6 -6 -6 -6 -6 -6 -7 -7 -7 -6 -6 -6 -6 -6 -6 -6 -7 -7 -7 -7 -7 -7 -6 -6 -6 -6 -6 -6 -5 -5 -6 -6 -6
-8 -8 -8 -8 -8 -8 -8 -8 -8 -8 -8 -8 -7 -7 -7 -7 -7 -7 -7 -7 -7 -7 -7 -7 -7 -7 -7 -7 -7 -7 -7 -7 -7 -7 -7 -7 -7 -7 -7 -6 -6 -6 -6 -6 -6 -7 -7 -7 -7 -7 -7 -6 -6 -6 -6 -6 -6 -7 -7 -7 -7 -7 -7 -7 -6 -6 -6 -6 -6 -5 -5 -6 -6 -6
-9 -9 -8 -8 -8 -8 -8 -8 -8 -8 -8 -8 -8 -8 -7 -7 -7 -7 -7 -7 -7 -7 -7 -7 -7 -7 -7 -7 -7 -7 -7 -7 -7 -7 -7 -7 -7 -7 -7 -7 -7 -7 -7 -7 -7 -7 -7 -7 -7 -7 -7 -7 -7 -7 -6 -6 -7 -7 -7 -7 -7 -7 -7 -7 -7 -6 -6 -6 -6 -6 -6 -6 -5 -5
-9 -9 -9 -9 -9 -8 -8 -8 -8 -8 -8 -8 -8 -8 -8 -8 -7 -7 -7 -7 -7 -7 -7 -7 -7 -7 -7 -7 -7 -8 -8 -8 -8 -7 -7 -7 -7 -7 -7 -7 -7 -7 -7 -7 -7 -7 -7 -7 -7 -7 -7 -7 -7 -7 -7 -7 -7 -7 -7 -7 -7 -7 -7 -7 -7 -6 -6 -6 -6 -6 -6 -6 -6 -6
-9 -9 -9 -9 -9 -9 -8 -8 -8 -8 -8 -8 -8 -8 -8 -8 -8 -7 -7 -7 -7 -7 -7 -7 -7 -7 -7 -7 -7 -8 -8 -8 -8 -8 -8 -8 -8 -8 -8 -8 -8 -7 -7 -7 -7 -7 -7 -7 -7 -6 -6 -7 -7 -7 -7 -7 -7 -7 -7 -7 -7 -7 -7 -7 -7 -6 -6 -6 -6 -6 -6 -6 -6 -6
-10 -9 -9 -9 -9 -9 -9 -9 -9 -8 -8 -8 -8 -8 -8 -8 -8 -8 -8 -7 -7 -8 -8 -7 -7 -7 -7 -7 -7 -7 -8 -8 -8 -8 -8 -8 -8 -8 -8 -8 -8 -8 -8 -8 -8 -8 -7 -7 -7 -7 -7 -7 -7 -7 -7 -7 -7 -7 -7 -7 -7 -7 -7 -7 -7 -7 -7 -7 -7 -6 -6 -6 -6 -6
Height
5965 5965 5966 5966 5967 5967 5967 5968 5968 5969 5970 5970 5970 5971 5971 5972 5972 5973 5973 5973 5973 5973 5973 5973 5973 5973 5973 5973 5972 5972 5972 5971 5971 5970 5969 5969 5968 5967 5965 5964 5963 5962 5961 5960 5959 5958 5957 5956 5954 5953 5952 5950 5948 5947 5945 5944 5942 5941 5939 5937 5936 5934 5933 5932 5932 5930 5929 5927 5925 5923 5921 5919 5917 5915
5965 5965 5966 5966 5967 5967 5967 5968 5968 5968 5969 5969 5970 5970 5971 5972 5972 5972 5973 5972 5972 5972 5973 5973 5973 5972 5972 5972 5972 5971 5971 5971 5970 5970 5969 5968 5967 5966 5965 5963 5962 5961 5960 5959 5959 5958 5957 5956 5954 5953 5952 5950 5949 5947 5946 5944 5943 5941 5940 5938 5936 5935 5934 5933 5932 5931 5930 5928 5927 5925 5923 5921 5920 5918
5965 5966 5966 5967 5967 5967 5967 5967 5968 5968 5968 5968 5969 5970 5970 5971 5971 5971 5972 5972 5971 5971 5972 5972 5972 5972 5971 5971 5971 5971 5971 5970 5970 5970 5969 5968 5967 5966 5964 5963 5962 5961 5960 5959 5958 5958 5957 5956 5955 5953 5952 5951 5950 5948 5946 5945 5943 5942 5940 5939 5937 5936 5934 5933 5932 5932 5931 5929 5928 5927 5925 5923 5922 5920
5965 5966 5966 5966 5967 5967 5967 5967 5968 5968 5968 5968 5969 5969 5970 5970 5970 5970 5970 5970 5970 5970 5970 5970 5971 5971 5971 5970 5970 5970 5970 5970 5969 5969 5968 5968 5967 5966 5964 5963 5962 5961 5960 5959 5958 5958 5957 5956 5955 5954 5953 5951 5950 5949 5947 5945 5944 5943 5941 5939 5938 5936 5935 5934 5933 5932 5931 5930 5929 5928 5926 5925 5923 5922
5964 5965 5966 5966 5966 5967 5967 5968 5968 5968 5968 5969 5969 5969 5969 5969 5969 5969 5970 5970 5970 5970 5970 5970 5970 5970 5970 5969 5969 5969 5969 5969 5968 5967 5967 5967 5966 5965 5964 5963 5962 5961 5960 5959 5959 5958 5957 5956 5955 5954 5953 5952 5951 5949 5948 5946 5945 5943 5942 5940 5939 5937 5936 5934 5933 5932 5932 5931 5930 5928 5927 5926 5925 5923
5963 5964 5965 5965 5966 5966 5967 5967 5967 5968 5968 5968 5968 5968 5969 5969 5969 5969 5969 5969 5969 5969 5969 5969 5968 5969 5969 5968 5968 5968 5968 5967 5967 5966 5966 5966 5966 5965 5964 5963 5962 5961 5960 5960 5959 5958 5957 5956 5955 5954 5953 5952 5951 5950 5948 5947 5945 5944 5942 5941 5939 5938 5936 5935 5934 5933 5932 5931 5930 5929 5928 5927 5926 5925
5962 5962 5963 5963 5964 5965 5965 5966 5966 5967 5967 5967 5968 5968 5968 5968 5968 5968 5968 5968 5968 5968 5968 5968 5967 5968 5968 5968 5967 5967 5967 5967 5966 5966 5966 5965 5965 5965 5964 5963 5962 5962 5961 5960 5959 5958 5957 5956 5955 5954 5953 5952 5951 5950 5949 5947 5946 5944 5943 5941 5940 5938 5937 5936 5935 5933 5932 5932 5931 5930 5929 5928 5927 5926
5961 5961 5961 5962 5962 5963 5964 5964 5965 5965 5966 5966 5967 5967 5967 5968 5968 5968 5968 5968 5967 5967 5967 5967 5967 5967 5967 5966 5966 5966 5966 5966 5966 5966 5965 5965 5965 5964 5964 5963 5962 5961 5961 5960 5959 5958 5957 5956 5955 5954 5953 5952 5951 5950 5949 5947 5946 5945 5943 5942 5940 5939 5938 5936 5935 5934 5933 5932 5931 5930 5929 5928 5927 5926
5960 5960 5960 5960 5961 5961 5961 5962 5963 5964 5964 5965 5966 5966 5966 5966 5967 5967 5967 5967 5967 5967 5966 5966 5966 5966 5966 5966 5965 5965 5966 5965 5965 5965 5965 5964 5964 5964 5963 5963 5962 5961 5960 5959 5958 5957 5956 5955 5954 5953 5952 5952 5951 5950 5949 5947 5946 5945 5943 5942 5941 5939 5938 5937 5936 5934 5933 5932 5931 5930 5929 5929 5928 5927
5959 5960 5960 5960 5960 5959 5960 5960 5960 5961 5962 5963 5964 5964 5965 5965 5965 5966 5966 5966 5966 5966 5966 5965 5965 5965 5965 5965 5964 5964 5965 5965 5964 5964 5964 5963 5963 5963 5963 5962 5961 5961 5960 5959 5958 5957 5956 5955 5954 5953 5952 5951 5950 5949 5948 5947 5946 5945 5944 5942 5941 5940 5938 5937 5936 5935 5933 5932 5931 5930 5929 5928 5928 5927
5959 5959 5959 5960 5959 5959 5959 5959 5959 5959 5960 5961 5961 5962 5963 5963 5964 5964 5964 5965 5965 5965 5965 5964 5964 5964 5964 5964 5963 5963 5963 5964 5964 5963 5963 5962 5962 5962 5962 5961 5960 5960 5959 5958 5957 5957 5956 5955 5954 5952 5951 5950 5950 5948 5947 5947 5946 5945 5944 5942 5941 5939 5938 5937 5936 5935 5933 5932 5931 5930 5929 5928 5927 5927
5958 5958 5958 5959 5959 5959 5959 5959 5959 5959 5959 5959 5960 5960 5961 5962 5962 5963 5963 5963 5964 5964 5963 5963 5963 5963 5963 5962 5962 5962 5962 5962 5962 5962 5962 5962 5961 5960 5960 5959 5959 5959 5958 5958 5957 5956 5955 5954 5953 5952 5950 5949 5949 5948 5947 5946 5945 5944 5943 5942 5940 5939 5938 5937 5936 5935 5933 5932 5931 5930 5929 5928 5927 5926
5957 5957 5957 5958 5958 5958 5959 5959 5959 5959 5959 5959 5959 5959 5960 5960 5961 5962 5962 5962 5963 5963 5962 5962 5962 5962 5961 5961 5961 5961 5960 5960 5961 5960 5960 5960 5960 5960 5959 5957 5957 5957 5958 5957 5956 5955 5955 5954 5952 5951 5949 5948 5947 5947 5946 5945 5944 5943 5942 5941 5940 5939 5937 5936 5935 5934 5933 5932 5930 5929 5928 5927 5927 5926
5956 5956 5957 5957 5957 5957 5957 5958 5958 5958 5959 5959 5959 5959 5959 5960 5960 5961 5961 5961 5961 5961 5961 5961 5960 5960 5960 5959 5959 5959 5959 5959 5959 5959 5959 5959 5959 5959 5958 5957 5955 5955 5956 5956 5955 5954 5953 5953 5951 5950 5948 5947 5946 5945 5945 5944 5943 5942 5941 5940 5939 5938 5937 5936 5934 5933 5932 5931 5930 5929 5928 5927 5926 5925
5955 5955 5955 5956 5956 5956 5956 5956 5956 5957 5957 5958 5958 5958 5958 5958 5958 5959 5959 5959 5959 5959 5960 5959 5959 5959 5958 5958 5957 5957 5957 5957 5957 5957 5957 5958 5958 5957 5957 5956 5954 5953 5953 5955 5954 5952 5951 5951 5950 5948 5947 5946 5945 5944 5943 5942 5941 5941 5940 5939 5938 5937 5936 5934 5933 5932 5931 5930 5929 5928 5927 5926 5925 5924
5952 5952 5953 5953 5954 5954 5954 5954 5954 5955 5955 5956 5956 5957 5956 5956 5956 5957 5957 5957 5957 5957 5957 5957 5957 5957 5957 5957 5956 5956 5956 5956 5956 5956 5956 5956 5956 5956 5955 5955 5954 5952 5951 5953 5953 5951 5949 5949 5949 5946 5945 5944 5943 5942 5941 5940 5939 5939 5938 5937 5936 5935 5934 5933 5932 5931 5930 5929 5928 5927 5926 5925 5924 5923
5949 5950 5950 5950 5951 5951 5951 5951 5951 5952 5952 5953 5954 5954 5954 5954 5954 5954 5954 5954 5954 5954 5955 5955 5955 5955 5955 5955 5955 5954 5954 5955 5955 5955 5955 5954 5954 5954 5954 5953 5952 5950 5949 5950 5952 5950 5948 5947 5947 5945 5943 5942 5940 5939 5939 5938 5937 5936 5935 5934 5934 5933 5932 5931 5930 5930 5929 5928 5927 5926 5925 5924 5923 5922
5947 5947 5948 5948 5948 5948 5949 5949 5949 5949 5949 5950 5951 5952 5952 5952 5951 5951 5952 5951 5951 5952 5952 5953 5953 5953 5952 5953 5954 5953 5953 5953 5953 5953 5953 5952 5952 5951 5951 5951 5950 5948 5947 5947 5949 5948 5946 5944 5944 5942 5940 5939 5938 5937 5936 5935 5934 5934 5933 5932 5931 5931 5930 5930 5929 5928 5927 5926 5925 5924 5924 5923 5922 5921
5945 5945 5945 5946 5946 5946 5946 5946 5946 5946 5946 5947 5948 5949 5950 5950 5949 5950 5950 5949 5949 5950 5950 5951 5951 5951 5951 5951 5952 5952 5951 5951 5951 5951 5951 5950 5949 5948 5949 5949 5947 5945 5944 5943 5945 5946 5944 5941 5941 5940 5938 5937 5935 5934 5933 5932 5932 5931 5930 5930 5929 5929 5928 5928 5927 5926 5925 5924 5924 5923 5922 5922 5921 5920
5942 5943 5943 5944 5944 5944 5944 5944 5944 5944 5944 5945 5946 5947 5947 5947 5947 5948 5947 5947 5947 5947 5948 5948 5949 5949 5949 5949 5950 5949 5949 5948 5947 5947 5948 5947 5945 5945 5947 5946 5945 5943 5941 5940 5940 5942 5941 5938 5938 5937 5935 5934 5933 5932 5931 5930 5929 5929 5928 5928 5927 5927 5926 5926 5925 5924 5924 5923 5922 5922 5921 5920 5919 5918
5940 5940 5940 5941 5941 5941 5941 5941 5941 5941 5942 5943 5944 5944 5945 5945 5945 5946 5945 5944 5944 5944 5945 5946 5946 5947 5947 5947 5947 5946 5946 5945 5944 5944 5945 5943 5941 5942 5944 5943 5942 5941 5939 5936 5936 5939 5938 5936 5935 5935 5933 5931 5930 5929 5928 5928 5927 5926 5926 5925 5925 5925 5924 5924 5923 5922 5922 5921 5920 5920 5919 5918 5918 5917
5937 5937 5937 5938 5938 5939 5939 5938 5938 5938 5939 5940 5941 5942 5942 5943 5944 5944 5942 5941 5941 5941 5942 5943 5944 5944 5944 5944 5944 5943 5942 5941 5940 5940 5940 5939 5938 5939 5940 5940 5939 5939 5937 5933 5932 5935 5935 5933 5932 5931 5931 5929 5927 5926 5926 5925 5924 5924 5923 5923 5923 5923 5922 5922 5921 5920 5919 5919 5918 5917 5916 5916 5915 5915
5934 5934 5934 5934 5934 5935 5935 5935 5935 5935 5935 5937 5939 5939 5939 5941 5941 5940 5938 5937 5938 5939 5940 5940 5941 5941 5941 5941 5940 5940 5939 5937 5936 5936 5936 5936 5935 5936 5937 5936 5936 5937 5935 5930 5929 5931 5932 5931 5929 5928 5928 5927 5925 5923 5923 5922 5922 5921 5921 5920 5920 5920 5920 5919 5918 5918 5917 5916 5915 5914 5914 5913 5913 5913
5930 5930 5930 5930 5930 5931 5932 5932 5932 5932 5932 5933 5935 5936 5936 5937 5937 5935 5934 5935 5936 5936 5937 5937 5937 5938 5937 5937 5937 5936 5935 5933 5932 5932 5932 5933 5932 5933 5933 5933 5933 5934 5932 5928 5927 5929 5929 5927 5925 5923 5924 5924 5923 5921 5919 5918 5918 5918 5918 5918 5917 5917 5916 5915 5915 5914 5914 5913 5912 5912 5911 5911 5910 5910
5926 5926 5927 5927 5927 5927 5928 5929 5929 5929 5929 5929 5931 5932 5932 5933 5932 5931 5932 5933 5933 5933 5933 5933 5933 5933 5933 5933 5932 5931 5931 5930 5929 5928 5929 5930 5930 5930 5930 5929 5929 5930 5928 5925 5925 5926 5925 5923 5922 5920 5919 5920 5920 5919 5917 5915 5915 5915 5915 5914 5914 5913 5912 5912 5911 5911 5910 5910 5909 5909 5908 5908 5907 5907
5922 5922 5923 5923 5924 5924 5925 5926 5926 5926 5926 5926 5927 5927 5927 5928 5928 5928 5929 5929 5929 5929 5929 5929 5930 5930 5929 5928 5927 5927 5926 5926 5925 5925 5926 5926 5926 5926 5926 5926 5926 5927 5925 5922 5921 5922 5922 5920 5918 5916 5916 5916 5916 5915 5914 5913 5912 5911 5911 5911 5910 5909 5909 5908 5907 5907 5907 5907 5907 5906 5906 5906 5905 5905
5917 5918 5919 5919 5920 5921 5921 5922 5922 5922 5922 5922 5922 5922 5923 5923 5924 5924 5925 5925 5924 5924 5925 5925 5926 5926 5925 5924 5924 5923 5922 5922 5921 5922 5922 5922 5922 5922 5922 5922 5922 5923 5921 5918 5916 5916 5917 5916 5913 5911 5911 5912 5912 5912 5911 5910 5909 5908 5907 5907 5906 5905 5905 5905 5904 5904 5904 5904 5904 5904 5904 5903 5903 5903
5913 5914 5914 5915 5916 5916 5917 5917 5917 5917 5917 5917 5917 5917 5917 5918 5918 5919 5919 5919 5919 5920 5920 5920 5921 5921 5920 5920 5919 5918 5918 5918 5918 5918 5918 5918 5918 5918 5918 5918 5918 5919 5917 5914 5912 5911 5911 5911 5909 5907 5907 5908 5908 5908 5907 5907 5906 5905 5904 5903 5902 5901 5902 5902 5902 5902 5902 5902 5902 5901 5901 5901 5901 5900
5909 5909 5910 5910 5911 5911 5912 5912 5912 5912 5912 5912 5912 5912 5912 5912 5913 5913 5913 5913 5913 5914 5915 5916 5916 5917 5916 5915 5914 5915 5914 5914 5914 5913 5913 5914 5914 5913 5913 5914 5915 5915 5913 5910 5908 5906 5905 5905 5905 5904 5903 5904 5905 5906 5905 5905 5904 5902 5901 5900 5899 5898 5899 5899 5900 5899 5899 5899 5899 5899 5898 5898 5897 5897
5904 5905 5905 5905 5906 5906 5906 5907 5907 5907 5907 5906 5907 5907 5907 5907 5907 5907 5907 5908 5909 5910 5911 5911 5912 5912 5911 5910 5910 5910 5910 5910 5910 5909 5908 5909 5909 5908 5907 5909 5911 5910 5908 5906 5904 5901 5900 5900 5900 5900 5900 5901 5902 5902 5903 5902 5902 5900 5898 5898 5897 5897 5896 5896 5896 5896 5896 5896 5896 5895 5894 5894 5893 5893
5899 5900 5900 5900 5901 5901 5901 5901 5901 5901 5901 5901 5902 5902 5901 5901 5901 5902 5904 5905 5906 5906 5907 5906 5907 5907 5907 5906 5906 5906 5905 5906 5905 5903 5902 5904 5905 5903 5901 5904 5907 5905 5902 5901 5899 5897 5896 5895 5895 5896 5897 5898 5899 5899 5899 5899 5898 5897 5895 5895 5895 5895 5895 5894 5894 5893 5893 5893 5892 5891 5890 5890 5889 5889
5894 5894 5895 5895 5895 5895 5895 5896 5896 5896 5896 5896 5896 5896 5896 5895 5896 5898 5900 5900 5900 5900 5900 5900 5901 5902 5902 5902 5901 5900 5900 5900 5900 5898 5897 5898 5900 5898 5897 5898 5901 5899 5896 5895 5894 5892 5891 5891 5891 5892 5894 5895 5896 5896 5895 5895 5895 5893 5893 5892 5891 5891 5891 5890 5890 5890 5890 5890 5889 5887 5886 5886 5885 5885
5888 5888 5889 5889 5889 5889 5890 5890 5890 5890 5890 5891 5891 5891 5891 5890 5891 5892 5894 5894 5894 5894 5894 5895 5896 5896 5896 5896 5895 5894 5893 5894 5894 5893 5892 5893 5894 5893 5892 5892 5894 5894 5892 5891 5889 5887 5886 5886 5887 5889 5891 5892 5893 5893 5892 5891 5890 5890 5890 5889 5888 5888 5887 5885 5885 5886 5886 5886 5885 5884 5883 5882 5881 5881
5882 5882 5883 5883 5883 5883 5884 5884 5884 5884 5884 5885 5886 5886 5886 5886 5886 5886 5887 5888 5888 5888 5889 5889 5890 5890 5889 5889 5888 5887 5888 5889 5890 5888 5887 5887 5887 5886 5886 5886 5887 5887 5887 5886 5884 5881 5880 5881 5883 5885 5887 5889 5889 5888 5886 5885 5885 5885 5885 5885 5884 5884 5882 5880 5880 5881 5881 5881 5881 5880 5880 5879 5877 5876
5876 5876 5877 5877 5877 5877 5877 5878 5878 5878 5879 5880 5880 5881 5881 5881 5881 5881 5881 5881 5882 5882 5883 5883 5883 5883 5882 5882 5882 5882 5883 5885 5885 5883 5882 5881 5881 5880 5879 5880 5881 5881 5880 5879 5878 5876 5875 5876 5878 5881 5884 5885 5884 5882 5879 5878 5879 5880 5879 5878 5878 5878 5878 5877 5875 5875 5876 5875 5875 5876 5876 5875 5872 5870
5869 5869 5870 5870 5871 5870 5871 5871 5872 5872 5873 5874 5874 5874 5875 5875 5875 5875 5875 5875 5876 5877 5877 5877 5877 5877 5877 5876 5877 5878 5878 5879 5879 5878 5877 5876 5874 5873 5873 5873 5874 5874 5873 5873 5873 5871 5871 5872 5874 5876 5878 5878 5877 5877 5875 5872 5873 5874 5875 5875 5874 5874 5873 5872 5871 5871 5870 5870 5870 5871 5871 5871 5869 5866
5862 5862 5863 5864 5864 5864 5864 5865 5866 5866 5867 5868 5868 5868 5868 5869 5869 5869 5869 5870 5871 5871 5871 5871 5871 5872 5872 5872 5872 5873 5873 5873 5873 5872 5872 5870 5869 5868 5868 5868 5868 5868 5868 5868 5868 5867 5867 5868 5868 5870 5871 5871 5871 5872 5871 5868 5868 5869 5869 5870 5870 5868 5867 5867 5867 5866 5865 5864 5864 5864 5865 5866 5866 5862
5855 5855 5856 5857 5857 5857 5858 5858 5859 5860 5861 5861 5861 5861 5862 5862 5863 5863 5864 5864 5865 5865 5866 5866 5866 5867 5867 5867 5866 5867 5867 5867 5867 5867 5867 5866 5864 5864 5864 5863 5864 5864 5865 5865 5865 5863 5862 5863 5863 5864 5864 5865 5866 5867 5866 5866 5867 5866 5864 5863 5863 5861 5860 5860 5861 5861 5860 5858 5858 5857 5858 5859 5860 5858
5847 5848 5849 5849 5850 5850 5851 5851 5852 5853 5853 5853 5854 5854 5855 5856 5857 5857 5858 5858 5859 5859 5860 5861 5861 5862 5861 5861 5860 5859 5860 5861 5862 5862 5861 5860 5860 5859 5859 5859 5859 5860 5860 5861 5861 5859 5857 5857 5858 5858 5858 5859 5860 5860 5861 5863 5865 5863 5860 5858 5856 5855 5854 5854 5854 5854 5854 5853 5851 5851 5852 5852 5852 5851
5839 5840 5841 5842 5842 5843 5844 5844 5845 5845 5846 5846 5847 5847 5848 5848 5850 5851 5851 5852 5852 5853 5854 5855 5856 5856 5855 5854 5852 5852 5854 5855 5856 5856 5855 5855 5854 5854 5854 5854 5854 5855 5855 5856 5856 5854 5852 5851 5852 5852 5852 5854 5854 5854 5856 5858 5860 5859 5856 5853 5850 5849 5849 5848 5847 5847 5848 5846 5845 5846 5847 5846 5846 5845
5830 5832 5833 5834 5834 5835 5835 5836 5837 5838 5838 5839 5840 5840 5841 5841 5842 5843 5844 5844 5845 5846 5847 5849 5850 5850 5849 5847 5846 5846 5847 5848 5849 5850 5849 5848 5848 5848 5848 5848 5848 5849 5849 5850 5851 5849 5846 5845 5845 5846 5847 5848 5848 5849 5850 5852 5854 5855 5852 5849 5845 5844 5843 5842 5842 5842 5842 5841 5840 5840 5841 5841 5840 5840
5820 5821 5823 5824 5825 5826 5827 5827 5828 5829 5830 5831 5832 5832 5833 5834 5835 5836 5836 5837 5838 5839 5840 5842 5843 5843 5842 5841 5840 5840 5840 5842 5842 5842 5842 5842 5842 5842 5842 5842 5843 5843 5843 5844 5845 5844 5841 5839 5839 5840 5841 5842 5842 5842 5845 5847 5848 5848 5848 5845 5841 5839 5838 5837 5836 5836 5836 5836 5835 5835 5836 5835 5834 5835
5810 5811 5812 5814 5815 5816 5817 5818 5819 5820 5821 5822 5823 5824 5825 5826 5827 5827 5828 5829 5830 5831 5833 5834 5835 5835 5835 5835 5834 5834 5834 5834 5835 5835 5835 5836 5836 5836 5837 5837 5837 5837 5836 5837 5838 5838 5835 5833 5833 5834 5835 5837 5837 5836 5838 5841 5841 5840 5841 5840 5837 5835 5833 5831 5830 5829 5829 5829 5829 5829 5829 5828 5828 5829
5800 5801 5802 5803 5804 5805 5806 5808 5809 5810 5811 5813 5814 5815 5816 5817 5818 5819 5820 5821 5821 5823 5824 5826 5827 5827 5827 5828 5828 5828 5827 5827 5827 5827 5828 5829 5829 5829 5830 5831 5831 5831 5830 5830 5831 5831 5830 5828 5827 5827 5827 5830 5831 5830 5830 5832 5833 5833 5833 5834 5833 5831 5828 5826 5825 5824 5824 5824 5823 5822 5821 5821 5820 5821
5789 5791 5792 5792 5793 5795 5796 5796 5797 5799 5800 5802 5803 5805 5806 5807 5809 5810 5811 5812 5813 5814 5815 5817 5818 5819 5819 5819 5819 5820 5821 5820 5820 5820 5821 5822 5822 5822 5823 5823 5824 5824 5824 5824 5824 5825 5824 5822 5821 5820 5820 5821 5822 5822 5822 5823 5824 5825 5826 5826 5826 5825 5822 5820 5819 5819 5819 5819 5818 5815 5814 5814 5813 5813
Wind_Speed
10 10 10 10 11 11 11 11 10 8 7 7 9 9 9 9 8 7 6 7 8 7 6 6 6 6 6 7 7 9 10 11 12 13 14 16 17 18 19 20 21 21 22 22 22 22 21 20 20 19 17 17 17 17 16 16 15 15 15 14 13 12 11 11 12 13 14 15 17 19 20 22 24 27
11 11 10 10 10 10 11 11 10 10 9 10 10 9 9 8 8 7 7 8 9 8 7 7 7 7 8 8 9 10 11 12 13 14 15 16 17 19 20 21 21 22 22 21 21 21 20 19 19 18 17 16 17 16 16 16 15 15 14 14 13 12 10 9 10 11 12 13 14 16 17 19 21 23
12 12 11 11 10 10 10 10 10 10 11 11 10 9 9 9 9 8 8 9 10 9 9 9 7 8 9 10 11 11 12 13 14 14 15 16 17 18 19 20 20 21 21 20 20 19 19 18 18 17 16 15 15 16 16 16 16 15 14 14 13 12 10 9 8 9 10 11 12 13 14 16 17 19
13 13 12 12 11 10 9 9 10 10 10 9 9 9 9 10 10 10 10 10 10 10 10 10 9 9 10 11 12 12 13 13 14 15 15 15 16 17 18 18 19 19 18 18 17 17 17 17 17 17 16 15 14 15 16 17 16 16 15 14 14 13 12 10 8 8 8 9 10 10 11 13 14 16
14 14 14 14 13 12 11 10 10 9 9 9 8 9 10 10 10 10 10 10 10 10 10 11 11 11 11 12 12 13 15 15 15 16 15 15 16 16 17 17 17 17 17 16 16 15 15 16 16 16 16 15 15 14 15 16 17 16 15 15 15 14 13 11 9 8 7 7 8 8 9 10 11 12
14 15 15 16 15 14 14 13 12 11 11 10 10 10 11 11 10 10 10 11 11 11 12 12 13 12 13 14 14 14 15 16 16 15 15 15 15 15 15 15 15 15 16 16 15 14 14 15 15 16 16 16 15 14 14 15 16 16 15 15 15 15 14 13 11 9 7 6 6 7 7 7 8 9
15 15 16 16 17 16 16 16 15 15 14 13 13 13 13 13 13 12 12 13 14 14 14 14 15 15 14 15 15 15 15 15 15 14 14 14 13 13 13 14 14 14 15 15 15 15 15 15 16 16 17 17 16 14 14 14 15 15 15 15 15 15 14 13 12 11 9 7 6 6 6 7 7 7
15 15 16 16 16 17 16 16 16 16 16 16 16 16 16 16 15 15 15 15 15 16 16 15 15 16 16 15 15 14 14 14 14 13 13 12 12 11 12 13 14 14 15 14 14 14 15 16 17 17 17 17 16 15 14 14 14 15 15 15 15 14 14 14 13 12 10 9 7 7 6 7 6 6
15 16 16 16 16 17 17 16 17 16 16 17 17 17 17 17 17 16 17 16 16 16 16 16 15 15 16 16 15 14 14 14 14 13 12 11 11 11 12 12 13 14 14 14 13 14 15 17 18 18 18 17 17 15 14 14 14 14 15 15 15 15 15 15 14 12 11 10 9 8 7 7 7 7
16 16 16 16 17 17 17 17 16 16 17 17 17 17 17 17 17 17 17 17 16 16 16 16 16 15 15 15 16 15 14 14 14 12 12 12 12 11 12 13 13 13 13 13 12 13 15 17 19 20 19 18 17 16 15 14 14 15 15 16 16 16 16 16 15 13 12 11 10 9 8 8 8 8
17 17 17 17 17 17 17 17 16 16 17 17 17 17 17 18 18 17 17 16 16 16 16 16 16 15 15 15 16 16 14 13 12 11 11 12 13 13 13 13 13 13 12 12 12 13 14 16 18 20 20 18 17 16 15 14 14 15 16 17 17 18 18 17 17 15 14 12 11 10 10 9 9 9
19 18 18 18 18 18 18 17 17 17 17 17 17 17 17 17 17 17 16 16 16 16 16 16 16 16 16 16 16 16 15 13 12 11 10 11 13 14 15 15 15 13 13 13 13 13 13 15 17 19 20 19 18 17 15 15 15 15 16 17 18 19 19 19 18 17 16 14 13 11 11 10 10 10
20 20 20 19 19 19 19 18 19 19 18 18 18 18 17 17 17 17 17 17 17 17 17 18 17 16 17 17 17 16 15 14 13 12 11 11 12 12 14 17 18 16 13 13 14 15 15 15 16 18 20 21 21 19 17 16 15 15 16 17 18 19 20 20 19 19 18 16 15 14 13 11 11 11
21 21 21 20 20 20 20 20 20 20 20 19 19 19 18 18 18 18 18 18 18 18 18 18 18 17 17 18 18 17 17 16 15 13 12 12 12 12 13 16 19 19 16 14 15 17 17 16 17 20 21 22 23 22 20 18 17 17 17 18 19 20 20 20 20 19 18 18 17 16 15 13 12 12
22 22 22 21 21 21 21 21 21 21 21 21 21 21 20 20 19 19 19 19 19 19 18 19 18 17 17 19 19 18 18 17 15 14 13 13 13 13 14 15 19 22 20 17 17 20 20 19 21 23 23 23 24 24 23 21 20 20 20 19 20 20 21 21 20 19 19 18 18 17 16 15 14 13
23 23 23 23 22 22 22 22 22 23 23 23 23 23 22 22 21 21 20 20 20 20 19 19 19 19 18 19 20 20 18 15 14 14 14 14 14 14 16 17 19 23 24 21 19 21 24 23 24 26 26 26 26 25 24 24 23 23 22 21 21 21 21 21 21 20 19 18 18 18 17 16 15 15
24 24 25 25 24 24 24 23 23 23 24 24 24 24 24 24 23 23 22 22 22 21 20 19 19 20 20 19 20 21 18 15 15 15 16 16 16 17 18 19 21 25 26 23 20 22 26 26 25 27 28 27 27 27 26 25 25 24 24 23 22 21 21 21 20 20 19 18 18 18 17 17 16 15
25 25 26 26 26 26 26 26 25 25 25 25 25 25 25 26 25 25 24 23 23 22 21 20 20 22 22 20 20 21 20 18 17 17 18 19 20 21 22 22 24 27 28 26 22 23 26 27 26 27 28 27 27 27 26 26 25 25 24 24 23 22 21 20 20 19 19 19 19 18 17 17 17 16
26 26 26 26 27 27 27 27 27 27 27 26 25 25 25 26 26 26 25 25 24 23 22 22 21 22 22 22 21 22 22 21 21 21 21 22 24 25 24 24 26 29 30 29 25 22 25 26 25 26 27 27 27 26 26 26 26 25 24 24 23 22 21 21 20 20 20 20 20 19 18 17 17 17
27 27 27 26 27 27 28 28 29 29 29 27 26 25 25 25 25 25 25 25 25 24 23 22 21 21 22 22 22 23 24 24 25 24 23 25 27 27 25 25 28 29 31 31 27 22 23 25 24 24 26 26 26 26 25 25 25 24 24 23 22 21 21 21 21 21 21 21 21 20 18 17 17 16
27 28 27 27 27 27 27 28 29 29 29 28 27 26 25 25 24 24 25 26 25 25 24 22 21 21 22 22 23 24 25 27 28 27 26 28 29 27 25 26 27 28 30 31 28 23 23 25 25 24 25 26 27 26 25 25 24 24 23 23 22 21 21 22 22 22 22 23 22 21 19 18 16 16
27 28 28 28 27 27 28 29 29 29 29 27 26 26 26 25 24 23 26 27 27 26 24 23 22 22 22 23 24 25 27 29 30 29 28 29 29 28 26 26 25 25 28 31 30 25 24 25 26 25 25 25 27 27 26 25 25 25 24 23 22 22 22 23 23 23 23 24 24 23 21 20 18 16
28 28 29 29 28 28 29 30 31 31 30 27 25 25 25 24 23 25 28 29 27 26 25 24 23 23 23 25 25 26 29 31 32 31 30 30 29 28 27 27 25 24 26 31 31 27 25 26 27 27 25 24 26 28 27 26 26 26 25 24 23 23 23 23 23 23 23 24 24 23 23 21 20 18
29 29 30 30 30 30 30 30 32 32 32 30 27 26 25 24 24 28 30 29 28 28 27 26 25 25 25 26 27 28 30 32 34 33 32 31 31 29 29 29 27 24 26 30 30 27 27 28 29 30 28 25 25 27 28 28 28 27 26 25 25 24 23 24 24 24 23 23 22 22 22 22 21 20
30 30 31 31 32 31 31 31 32 33 33 33 30 28 28 27 28 30 30 30 30 30 29 29 29 28 29 29 30 31 32 34 35 34 33 33 32 31 30 30 28 26 28 30 30 28 28 29 30 31 30 28 27 27 28 30 30 29 28 27 26 26 25 25 25 24 23 22 21 21 21 22 22 21
31 32 32 32 32 32 32 32 33 33 34 34 33 32 32 31 31 31 31 31 32 33 33 33 32 32 33 34 35 35 35 36 36 36 35 34 34 34 33 31 30 28 30 32 32 30 29 30 31 32 31 29 28 27 28 29 30 30 29 29 28 28 27 26 26 25 23 21 20 20 20 21 22 22
33 33 34 34 33 33 32 33 34 34 34 35 35 35 35 35 35 34 34 34 35 36 36 36 35 35 36 37 37 38 38 38 38 38 37 36 36 36 35 34 32 31 32 34 35 33 32 31 32 33 31 29 28 27 28 29 29 29 30 30 30 29 27 27 27 26 24 21 20 19 19 20 21 22
33 34 34 34 35 35 35 35 35 35 36 36 37 37 37 37 37 36 36 37 37 37 37 37 37 37 37 38 38 39 39 39 39 39 38 38 38 37 37 36 34 33 34 36 37 37 35 33 33 33 32 29 27 26 27 27 28 28 29 29 30 30 28 26 25 25 23 22 20 20 20 20 21 22
32 33 34 34 35 36 37 37 38 38 38 39 39 39 39 39 39 39 39 39 39 38 38 38 37 37 38 39 39 39 40 40 39 40 39 38 38 38 38 37 34 34 35 36 38 39 37 35 34 33 31 29 26 25 25 25 25 26 27 28 28 29 27 26 24 23 22 21 21 21 21 21 22 22
32 33 34 34 35 36 37 38 39 40 41 42 41 41 41 41 41 41 41 40 39 39 39 39 38 38 39 40 40 40 40 40 40 41 41 40 39 40 40 37 34 35 36 37 38 39 39 37 35 33 31 28 26 24 24 23 23 24 26 26 26 26 27 26 24 23 23 22 21 21 22 22 23 23
32 33 34 35 35 36 36 37 38 40 42 43 43 43 44 44 44 42 40 39 40 40 40 40 40 39 39 40 40 41 41 41 41 43 43 41 40 42 43 39 36 36 38 38 38 39 40 39 37 34 31 28 25 24 24 23 23 23 25 26 27 26 26 26 26 25 24 23 22 23 23 24 24 24
34 34 34 35 36 37 37 38 38 39 40 41 42 43 45 46 45 43 41 40 40 41 41 41 40 40 39 38 38 39 40 40 41 43 44 43 41 43 44 41 38 38 40 39 39 40 40 40 38 35 31 28 26 25 25 24 24 24 25 27 28 28 27 28 27 27 27 26 25 26 27 27 27 28
37 37 37 37 37 38 38 39 39 40 40 40 41 42 43 44 44 43 42 41 40 41 41 41 40 40 39 38 38 39 39 38 38 41 42 42 41 42 43 42 40 39 40 40 40 41 42 41 39 35 31 28 26 26 26 25 25 26 26 27 28 28 30 31 30 29 29 28 29 30 30 31 31 31
40 40 40 40 41 41 40 40 40 41 41 41 41 41 42 43 43 43 43 42 41 41 40 39 39 39 38 38 39 40 39 37 37 38 40 40 40 40 40 40 39 38 39 39 40 42 43 41 39 35 31 28 26 27 27 27 26 26 26 26 27 28 29 32 33 31 30 30 31 31 31 32 33 33
42 42 42 43 43 44 43 43 42 42 42 41 41 41 41 42 43 43 43 43 42 41 40 39 39 38 38 38 38 39 38 37 36 38 39 39 39 39 38 37 37 37 38 39 39 41 42 40 38 35 30 27 26 27 28 29 28 27 28 29 30 30 30 33 35 34 33 32 32 30 30 31 34 36
44 45 45 45 45 46 46 46 46 45 44 43 43 43 43 43 44 44 44 44 43 42 41 41 40 40 40 39 38 38 37 36 36 37 38 38 39 39 39 38 37 38 39 39 38 39 39 38 37 33 29 27 28 27 28 31 32 31 30 31 33 33 34 36 37 37 37 37 35 33 32 32 34 37
45 46 46 46 47 47 48 48 48 47 47 46 46 46 46 45 45 46 46 45 45 44 43 43 42 41 41 41 40 39 38 37 37 38 39 39 40 40 40 39 39 39 39 38 37 37 37 36 35 32 30 30 31 29 28 31 33 34 34 33 33 34 36 36 36 37 40 41 39 38 36 34 33 36
47 47 47 48 48 49 49 49 48 48 49 49 50 50 49 49 48 48 48 47 46 46 45 45 44 43 42 42 42 41 40 39 38 38 39 40 40 40 40 40 40 40 39 37 36 36 36 35 34 33 33 34 33 32 31 32 31 32 35 36 36 38 39 37 35 35 36 39 40 39 37 35 34 35
50 50 49 49 50 50 50 50 49 49 49 50 51 52 52 52 51 51 50 49 49 48 47 46 45 44 43 43 44 44 42 41 39 39 39 40 41 41 41 41 41 40 38 35 34 35 37 36 36 36 37 36 35 34 33 31 29 31 35 38 40 42 43 40 38 36 35 36 38 38 36 35 35 35
53 53 52 52 52 52 52 52 51 51 51 51 51 52 53 53 53 53 52 52 52 51 49 47 45 45 45 45 46 46 45 42 41 40 40 40 40 40 40 40 40 39 37 35 34 36 38 38 39 39 39 37 35 35 34 31 30 32 36 40 42 43 43 43 42 40 38 36 34 33 32 32 33 33
58 57 56 55 55 55 55 55 54 54 53 53 52 53 53 53 53 53 53 54 54 53 52 50 47 46 46 47 48 48 46 44 43 42 42 41 40 40 40 40 39 38 38 37 37 39 41 42 42 42 41 39 38 37 36 34 33 33 36 40 42 42 42 43 44 42 39 35 32 29 29 31 31 31
62 62 61 60 59 59 59 58 58 57 56 55 55 55 54 54 54 54 53 54 54 54 53 52 50 49 49 49 49 49 48 46 45 44 43 43 42 41 40 40 40 40 40 39 39 41 44 46 46 44 42 41 41 40 38 36 35 35 35 38 42 44 44 44 44 43 39 36 34 32 32 33 33 32
66 66 65 64 64 63 62 62 62 61 60 59 58 58 57 57 56 56 55 55 55 54 54 53 52 52 51 51 51 50 50 49 48 47 46 45 43 42 42 42 42 42 43 42 42 43 46 47 48 48 45 43 43 43 41 38 37 36 36 37 39 42 43 43 43 43 40 38 37 37 37 37 37 35
69 69 68 68 68 67 66 66 66 65 64 63 62 62 61 60 59 59 58 58 57 56 55 54 54 54 53 53 53 53 52 52 51 50 48 47 46 45 43 43 43 44 45 46 46 47 48 49 50 50 49 46 45 46 44 42 40 40 39 38 37 36 38 40 41 41 40 39 39 41 42 43 42 40
72 72 72 71 71 70 70 70 69 69 68 67 66 66 65 64 63 62 61 60 60 59 58 57 56 56 56 55 55 54 54 54 54 53 51 49 48 47 46 46 46 46 47 48 49 50 51 52 53 53 52 51 50 50 49 47 45 43 43 41 38 36 38 40 41 42 41 41 43 45 47 48 47 45
Wind_Direction
182 181 183 186 189 194 197 201 207 211 213 221 228 230 232 239 247 251 253 263 276 284 290 300 311 312 310 315 316 316 320 323 326 330 335 339 341 342 342 343 345 346 348 351 352 354 357 360 2 5 6 3 359 357 359 2 3 5 5 4 5 3 3 9 17 24 26 25 26 27 28 30 34 38
190 187 189 193 196 200 204 206 206 204 207 218 229 236 241 246 254 260 262 265 273 284 289 291 296 299 304 311 313 314 316 319 323 327 332 337 338 339 340 341 343 345 348 350 352 354 357 0 4 7 8 5 0 357 358 0 2 4 4 4 5 5 1 1 10 20 25 26 27 28 28 29 31 38
199 196 196 199 202 202 204 209 211 209 210 217 224 231 238 245 249 252 255 257 262 270 278 281 286 291 297 303 307 311 315 318 322 325 330 334 335 337 338 339 341 343 347 351 353 357 1 3 6 8 9 8 4 359 357 358 1 3 4 3 5 6 3 356 359 11 19 23 26 28 29 29 28 34
208 205 204 207 210 210 208 209 213 215 218 223 225 225 230 238 242 244 247 251 255 259 266 275 284 287 289 294 300 307 313 318 321 324 328 332 334 336 337 338 341 345 350 355 358 2 4 5 6 8 9 11 10 2 356 357 360 2 2 1 2 5 5 358 351 357 8 15 20 24 27 29 28 29
214 214 213 214 218 219 219 220 220 220 223 228 228 228 233 239 243 249 254 259 265 267 268 274 279 282 289 296 301 306 311 318 322 325 329 332 334 336 336 338 344 349 355 0 2 3 4 2 3 5 7 10 12 6 357 355 358 2 3 1 360 1 4 2 352 345 351 1 10 15 19 24 26 24
214 218 219 220 222 223 225 228 229 229 230 233 235 237 242 247 249 255 259 263 269 272 272 275 281 287 292 297 302 307 311 317 323 328 333 336 337 338 336 339 347 352 356 1 3 2 1 359 359 1 2 4 8 5 358 354 355 358 1 1 360 360 0 1 357 347 339 340 350 360 4 11 17 17
215 218 221 223 225 227 229 231 233 235 236 238 242 245 249 253 255 258 260 264 269 273 276 279 285 292 293 295 301 306 311 316 322 329 335 338 340 341 339 339 346 351 355 359 1 1 359 356 355 356 356 357 0 1 357 353 351 352 354 356 358 359 359 359 358 353 344 334 329 335 343 351 360 4
219 219 221 223 226 230 233 235 236 239 241 243 246 249 252 257 261 262 263 266 270 275 279 282 285 290 293 297 302 306 310 316 322 328 333 335 338 339 337 336 341 345 351 357 359 358 355 352 351 352 351 351 353 354 352 349 348 347 348 350 352 354 356 357 357 354 348 340 328 319 318 325 337 346
224 223 223 224 226 229 232 234 236 238 242 245 248 251 255 259 262 264 266 269 272 276 280 284 287 289 293 298 304 309 312 314 319 326 329 328 328 331 331 332 336 341 347 354 356 354 352 350 348 347 347 347 347 348 348 346 346 345 347 348 349 350 351 352 354 353 349 343 336 324 312 306 311 321
231 229 229 229 230 230 231 233 234 236 239 244 248 252 255 259 262 265 269 272 276 278 281 285 289 292 294 297 303 309 311 311 316 322 323 320 318 322 327 329 332 337 344 350 352 350 349 347 343 341 342 344 343 344 345 345 345 346 348 350 351 351 351 350 349 350 348 344 339 333 323 310 301 301
236 235 235 235 236 238 238 238 237 237 238 242 246 250 254 257 260 263 267 270 273 277 280 284 288 294 298 298 300 304 307 309 313 317 319 316 314 319 325 326 327 333 340 342 342 343 344 341 337 335 338 341 342 342 344 344 345 347 348 349 351 351 351 350 348 347 346 343 340 336 331 323 312 303
240 239 239 239 241 243 245 246 246 245 244 244 247 249 253 256 259 262 266 270 273 276 280 284 288 293 297 297 297 299 302 306 310 312 312 308 308 315 320 317 317 325 334 334 331 332 335 335 332 331 332 337 339 340 341 341 342 345 345 345 347 347 347 348 347 346 344 342 340 336 332 328 323 317
244 243 242 242 243 244 247 250 251 252 252 251 253 255 257 259 262 265 270 273 276 279 281 284 288 291 292 291 292 296 297 301 305 307 306 302 303 309 310 307 309 316 325 326 321 323 328 330 328 325 326 329 331 332 334 334 335 337 339 340 341 342 342 341 342 342 341 340 338 335 332 329 327 325
249 249 248 247 247 247 248 250 252 255 256 257 259 261 263 264 266 268 271 274 276 278 280 281 284 286 285 285 289 292 294 297 300 300 298 296 298 302 302 301 302 308 314 317 314 316 320 324 321 318 319 320 321 322 324 326 326 328 330 332 334 335 335 335 335 336 336 336 334 332 330 329 328 327
251 252 253 254 254 253 252 253 254 255 258 259 261 263 264 265 267 269 271 273 274 275 276 278 280 280 280 282 286 288 290 294 295 293 291 291 293 295 295 294 296 301 305 308 310 310 311 314 313 310 311 311 311 312 314 316 318 319 321 324 326 328 328 328 328 329 330 331 330 329 328 326 326 326
247 248 249 251 252 253 253 254 255 256 258 259 261 263 264 265 266 267 269 270 272 273 273 274 276 277 277 280 284 286 288 290 288 286 287 288 288 287 287 287 289 293 297 301 304 303 303 305 306 304 304 305 304 305 307 308 310 313 315 318 320 321 322 321 321 322 324 325 326 325 324 324 323 323
247 247 247 247 248 248 249 250 252 253 255 257 259 261 263 265 265 266 266 266 267 268 269 270 271 274 275 276 279 283 285 285 284 283 283 284 283 281 281 283 285 287 293 298 301 300 300 301 301 299 299 300 300 301 303 304 306 308 310 313 315 316 316 315 315 317 319 320 322 322 322 321 320 320
248 248 248 248 248 249 249 249 250 250 251 253 255 257 260 263 265 266 266 266 266 267 268 268 268 270 273 275 276 278 281 281 279 279 279 280 281 280 280 283 284 287 293 300 303 301 299 298 298 296 296 297 297 299 300 301 302 304 305 308 310 311 311 310 311 313 316 317 319 319 319 319 318 318
248 249 250 250 251 252 252 252 252 252 251 252 252 254 257 260 263 266 267 267 266 266 266 266 266 268 272 274 273 274 276 277 276 276 276 277 277 278 281 285 287 289 294 298 301 301 297 295 295 295 295 295 296 297 298 298 299 300 301 303 305 306 306 307 309 312 314 315 316 316 317 317 316 316
252 253 253 254 255 256 256 256 256 256 256 256 256 255 256 258 260 262 265 266 266 266 264 264 264 265 267 270 271 272 273 275 275 276 278 277 277 279 282 284 286 289 293 295 297 299 296 294 296 296 295 295 296 296 296 297 297 297 297 298 300 301 303 306 309 311 313 313 312 312 312 312 312 313
256 257 257 256 256 258 259 259 259 259 259 259 259 259 259 259 260 261 263 264 264 264 264 264 264 264 264 266 268 270 272 274 276 277 277 277 279 283 285 285 286 289 292 293 295 298 297 296 297 296 295 295 295 295 296 296 296 296 296 296 299 301 304 306 309 310 311 311 310 308 306 305 305 305
255 257 258 259 259 259 259 260 261 261 260 259 259 260 260 260 262 264 263 261 261 262 263 264 264 264 265 266 267 268 271 272 274 275 276 277 280 284 287 286 287 289 290 291 293 295 294 293 293 292 291 293 293 292 293 294 295 295 295 297 300 302 304 306 308 309 311 311 309 306 302 300 298 298
254 255 256 257 257 257 258 260 262 263 263 262 260 260 260 261 261 260 259 259 261 263 265 265 265 264 264 265 266 267 269 270 272 274 276 278 281 284 286 287 288 288 287 286 288 291 291 289 288 287 286 287 288 289 290 290 290 291 293 295 298 300 302 303 304 307 309 309 307 303 300 297 295 293
254 254 254 254 255 255 256 258 260 262 264 264 261 260 260 258 257 257 258 260 262 264 266 267 267 266 265 265 264 264 265 267 269 272 275 278 280 283 284 285 286 286 284 283 284 288 289 288 287 286 285 284 283 285 287 287 287 288 289 291 294 295 296 297 299 301 303 304 303 301 299 296 293 291
256 255 255 255 256 256 257 258 259 261 263 264 262 260 258 255 254 256 259 262 263 265 266 267 268 269 269 269 268 267 267 268 270 273 275 277 280 281 283 283 285 286 285 283 284 286 287 287 286 285 285 284 282 282 283 284 285 286 287 288 289 290 291 292 294 296 297 298 299 299 298 295 293 293
260 258 257 257 257 258 259 260 261 262 264 265 265 263 260 257 255 255 257 259 262 264 265 266 267 269 270 272 272 273 273 273 275 277 279 280 282 283 284 286 287 288 288 287 287 286 285 285 284 283 283 283 282 282 281 282 283 284 285 285 285 285 286 288 289 290 292 294 296 297 297 296 296 296
260 259 258 258 258 259 260 260 260 261 262 264 265 264 263 262 260 258 257 257 258 261 263 265 266 267 268 270 271 273 274 275 276 278 280 281 282 284 286 287 289 291 291 290 290 289 287 285 284 283 283 282 282 282 281 281 281 282 282 283 282 282 283 284 286 288 290 293 295 298 299 299 299 298
261 261 260 259 259 259 260 260 259 259 259 260 261 262 263 263 263 262 261 260 260 260 262 263 265 266 267 268 269 270 272 274 276 277 279 280 282 283 285 286 289 291 291 291 290 290 289 287 284 282 282 282 281 281 281 282 282 282 281 281 281 282 282 283 285 287 290 293 296 300 302 300 299 297
261 262 262 262 261 260 260 259 259 258 258 258 259 260 261 261 262 262 262 262 262 263 263 264 264 266 267 268 269 270 272 274 275 276 277 279 280 282 283 284 288 290 289 288 288 289 289 288 285 282 281 280 280 281 281 282 282 282 281 281 282 284 286 287 287 289 290 293 296 298 298 296 294 294
259 260 261 262 262 261 260 260 259 258 259 259 260 261 262 262 261 261 262 262 264 265 266 267 267 267 267 268 269 271 272 273 274 276 276 277 279 280 281 283 286 287 286 285 285 286 287 287 285 282 280 279 280 281 282 283 283 283 282 283 285 287 289 290 291 290 290 292 294 293 291 289 289 289
256 257 259 260 261 261 260 260 259 259 260 261 261 262 263 263 263 265 267 268 269 269 269 268 269 269 269 270 271 271 272 272 273 274 275 276 277 279 280 282 285 285 284 284 284 284 285 285 283 281 279 279 280 281 283 285 286 285 285 287 288 289 290 291 291 291 290 291 291 289 287 286 284 283
255 255 257 258 260 260 260 260 260 261 261 262 263 264 264 265 265 267 268 269 270 270 269 269 269 270 271 272 272 272 272 272 271 272 273 274 275 277 278 280 281 281 282 284 284 284 284 283 282 280 278 278 280 282 284 286 286 284 283 285 288 290 290 289 288 288 288 289 288 286 285 284 282 281
255 255 256 257 258 259 260 260 261 262 262 263 264 265 266 267 267 267 267 267 268 269 269 270 270 271 272 272 272 273 273 274 274 274 274 275 275 275 276 277 278 279 280 282 283 283 283 283 282 280 279 279 281 284 285 285 282 281 280 281 283 286 287 286 285 285 285 285 285 284 285 285 286 286
255 256 256 257 257 258 259 260 261 262 262 263 264 265 267 268 268 268 268 267 267 267 269 270 271 271 271 271 271 272 274 276 278 279 278 278 277 277 276 275 275 276 277 278 279 280 281 282 282 281 280 282 284 285 285 282 280 279 278 277 277 277 279 282 284 284 283 282 282 283 286 289 291 292
257 257 257 257 257 257 257 258 259 260 261 263 264 264 265 266 267 268 268 268 268 268 269 270 270 271 272 272 273 274 276 277 277 279 279 279 278 278 277 275 274 273 273 273 274 276 278 281 281 281 281 282 283 282 281 279 277 276 276 277 277 277 278 280 283 285 285 283 282 283 287 290 293 295
258 258 257 257 257 257 257 257 257 258 259 260 262 262 263 263 265 266 266 267 267 268 269 270 271 272 273 275 276 278 278 277 275 276 278 278 276 275 275 275 273 271 269 270 271 273 275 277 278 278 278 279 279 279 278 278 278 278 278 280 282 283 283 282 283 285 285 285 285 285 286 288 290 291
258 258 258 258 258 258 257 257 258 258 258 258 259 259 260 261 262 263 265 266 266 267 268 269 271 272 274 276 278 279 279 278 276 275 275 276 275 275 277 277 276 273 272 271 270 271 273 273 273 273 273 275 276 276 274 275 279 282 285 287 288 288 286 284 284 285 285 285 286 286 286 287 288 288
259 259 259 259 259 259 259 259 258 258 259 259 258 258 259 259 260 261 263 264 265 266 266 268 269 271 273 275 276 276 277 277 277 277 277 276 277 278 279 279 278 277 276 275 272 271 271 270 269 269 270 272 273 271 268 270 277 284 287 289 290 289 288 287 287 287 288 288 285 284 285 287 287 285
259 259 259 259 259 259 259 260 260 259 258 259 259 259 259 259 260 260 262 263 263 264 265 266 267 269 271 272 272 273 273 274 275 276 277 277 278 279 280 280 278 277 277 276 273 271 270 269 268 268 269 270 270 269 268 270 275 281 284 286 286 287 287 288 289 292 294 292 285 280 283 287 287 285
259 259 259 259 259 259 259 260 260 260 260 259 260 260 260 261 261 261 261 262 262 262 262 263 264 266 268 269 270 271 271 272 272 273 274 276 277 278 278 278 277 276 275 273 270 269 268 268 267 268 268 269 270 270 271 272 275 280 284 285 284 284 284 286 289 293 296 295 286 280 282 287 287 286
260 259 259 259 259 260 260 260 260 260 260 260 261 261 261 262 262 262 261 262 262 262 262 261 261 263 265 267 268 270 271 272 272 271 271 272 273 274 274 275 275 274 273 271 270 270 270 269 268 268 268 270 271 271 273 274 277 279 281 281 281 281 281 283 285 287 291 291 285 280 282 284 285 287
261 261 260 260 259 259 259 260 260 260 260 260 260 261 262 262 263 263 263 263 263 263 263 262 261 261 262 264 266 268 270 271 271 271 270 270 270 270 271 272 272 272 272 270 270 269 269 270 270 270 270 272 273 273 274 276 277 277 278 278 277 278 279 281 282 283 284 285 283 282 282 283 283 284
259 260 260 260 260 260 260 260 260 260 260 260 260 260 260 261 262 263 263 264 264 264 264 263 263 262 262 262 264 265 267 269 269 270 270 269 269 268 268 269 270 270 270 270 269 268 267 268 269 269 269 271 272 274 276 278 277 277 278 278 276 276 277 277 278 279 281 282 283 283 283 283 283 284
258 259 259 259 260 260 260 260 260 260 260 260 260 260 260 260 260 261 262 263 264 264 264 264 264 264 263 262 262 263 264 265 266 267 268 268 268 268 267 267 267 267 268 269 270 270 270 271 272 272 272 273 274 276 280 281 278 277 277 276 274 275 276 275 274 276 278 280 282 283 283 284 285 285
257 257 258 258 259 259 259 260 260 260 260 260 260 260 260 260 260 260 260 261 262 263 263 264 264 264 264 264 263 262 262 263 264 264 265 265 266 267 266 265 265 265 266 267 269 270 271 272 273 274 274 275 276 279 280 279 277 276 275 273 271 272 274 274 274 275 277 278 279 280 282 283 284 283